Tracking 29892 objects as of 21-Nov-2024
HD Live streaming from Space Station
objects crossing your sky now

SCOUT A DEB

Track SCOUT A DEB now!
10-day predictions


NORAD ID: 2140
Int'l Code: 1966-005C
Perigee: 849.4 km
Apogee: 1,323.8 km
Inclination: 89.9 °
Period: 106.8 minutes
Semi major axis: 7457 km
RCS: 0.0481 m2 (small)
Launch date: January 28, 1966
Source: United States (US)
Launch site: AIR FORCE WESTERN TEST RANGE (AFWTR)

Note: This is SATELLITE DEBRIS
Your satellite tracking list
Your tracking list is empty




NASA's NSSDC Master Catalog

Two Line Element Set (TLE):
1 02140U 66005C   24324.69059849  .00000293  00000-0  33457-3 0  9998
2 02140  89.9435  53.4602 0318087  44.2895 318.3239 13.48052615881041
Source of the keplerian elements: AFSPC